Tracking 28790 objects as of 19-Apr-2024
HD Live streaming from Space Station
objects crossing your sky now

SCOUT G-1 DEB

Track SCOUT G-1 DEB now!
10-day predictions


NORAD ID: 28672
Int'l Code: 1988-074H
Perigee: 988.2 km
Apogee: 1,119.0 km
Inclination: 90.0 °
Period: 106.1 minutes
Semi major axis: 7424 km
RCS: 0.0099 m2 (small)
Launch date: August 25, 1988
Source: United States (US)
Launch site: AIR FORCE WESTERN TEST RANGE (AFWTR)

Note: This is SATELLITE DEBRIS
Your satellite tracking list
Your tracking list is empty




NASA's NSSDC Master Catalog

Two Line Element Set (TLE):
1 28672U 88074H   24094.05902344  .00001467  00000-0  19993-2 0  9999
2 28672  89.9920  10.3048 0088127 166.3343 208.5713 13.57037297522090
Source of the keplerian elements: AFSPC